K1NOT-WX Weather Reports


Display with metric or nautical units.
time (UTC)temp
F
wind
direction
speed
MPH
gust
MPH
rain 1hr
in
rain 24hr
in
rain mn
in
humidity
%
barometer
mb
20260507044213 54 180 1.0 2.0 0.00 0.00 0.00 86 1011.8
20260507042713 54 203 2.0 2.0 0.00 0.00 0.00 85 1012.2
20260507041213 55 203 2.0 2.0 0.00 0.00 0.00 84 1011.8
20260507035713 55 225 2.0 2.0 0.00 0.00 0.00 83 1012.2
20260507034212 55 180 2.0 2.0 0.00 0.00 0.00 82 1011.8
20260507032712 55 203 1.0 2.0 0.00 0.00 0.00 82 1011.8
20260507031212 55 180 2.0 3.0 0.00 0.00 0.00 82 1011.8
20260507025712 56 225 2.0 2.0 0.00 0.00 0.00 82 1011.5
20260507024212 56 203 0.0 0.0 0.00 0.00 0.00 82 1011.2
20260507022712 56 180 2.0 2.0 0.00 0.00 0.00 82 1011.8
20260507021212 56 158 2.0 2.0 0.00 0.00 0.00 81 1011.2
20260507015712 56 158 1.0 2.0 0.00 0.00 0.00 82 1011.5
20260507014212 56 225 2.0 3.0 0.00 0.00 0.00 81 1011.2
20260507012712 56 203 1.0 2.0 0.00 0.00 0.00 81 1011.2
20260507011212 56 225 3.0 5.0 0.00 0.00 0.00 81 1011.5
20260507005712 56 203 1.0 2.0 0.00 0.00 0.00 81 1011.5
20260507004212 57 158 3.0 5.0 0.00 0.00 0.00 80 1011.8
20260507002712 56 203 4.0 5.0 0.00 0.00 0.00 80 1011.5
20260507001212 57 203 4.0 5.0 0.00 0.00 0.00 80 1011.5
20260506235712 56 225 1.0 2.0 0.00 0.00 0.00 81 1011.5
20260506234212 56 203 2.0 3.0 0.00 0.00 0.00 79 1011.8
20260506232712 56 225 2.0 3.0 0.00 0.00 0.00 79 1011.8
20260506231212 56 203 3.0 3.0 0.00 0.00 0.00 79 1011.8
20260506225712 57 180 3.0 3.0 0.00 0.00 0.00 77 1011.8
20260506224212 57 225 2.0 3.0 0.00 0.00 0.00 77 1011.8
20260506222712 57 225 2.0 2.0 0.00 0.00 0.00 76 1011.5
20260506221212 57 225 1.0 2.0 0.00 0.00 0.00 74 1011.8
20260506215712 57 180 1.0 2.0 0.00 0.00 0.00 73 1011.8
20260506214212 57 158 7.0 8.0 0.00 0.00 0.00 74 1011.8
20260506212712 57 248 3.0 4.0 0.00 0.00 0.00 74 1011.8
20260506211212 57 225 3.0 4.0 0.00 0.00 0.00 74 1012.2
20260506205712 57 203 5.0 6.0 0.00 0.00 0.00 73 1011.8
20260506204212 57 225 3.0 4.0 0.00 0.00 0.00 73 1011.8
20260506202712 57 248 2.0 2.0 0.00 0.00 0.00 75 1011.8
20260506201212 57 225 4.0 5.0 0.00 0.00 0.00 75 1011.8
20260506195712 57 225 3.0 3.0 0.00 0.00 0.00 77 1011.5
20260506194212 57 248 2.0 2.0 0.00 0.00 0.00 77 1011.5
20260506192712 56 225 4.0 5.0 0.00 0.00 0.00 78 1011.8
20260506191212 56 225 4.0 5.0 0.00 0.00 0.00 80 1011.5
20260506185712 55 225 4.0 6.0 0.00 0.00 0.00 81 1011.5
20260506184212 54 180 5.0 5.0 0.00 0.00 0.00 83 1011.5
20260506182712 54 180 4.0 5.0 0.00 0.00 0.00 86 1011.5
20260506181212 54 203 4.0 5.0 0.00 0.00 0.00 88 1011.8
20260506175712 54 225 2.0 3.0 0.00 0.00 0.00 88 1011.2
20260506174212 54 180 1.0 2.0 0.00 0.00 0.00 90 1011.2
20260506172712 53 203 1.0 2.0 0.00 0.00 0.00 91 1011.5
20260506171212 53 135 3.0 5.0 0.00 0.00 0.00 90 1011.2
20260506165712 53 158 4.0 5.0 0.00 0.00 0.00 89 1011.2
20260506164212 53 225 1.0 2.0 0.00 0.00 0.00 90 1011.2
20260506162712 53 203 4.0 5.0 0.00 0.00 0.00 91 1011.5
20260506161212 53 180 3.0 4.0 0.00 0.00 0.00 93 1010.8
20260506155712 52 180 4.0 5.0 0.00 0.00 0.00 95 1010.8
20260506152713 51 203 3.0 4.0 0.00 0.00 0.00 96 1010.8
20260506151213 52 225 0.0 0.0 0.00 0.00 0.00 95 1011.2
20260506145713 52 203 3.0 5.0 0.00 0.00 0.00 95 1010.5
20260506144213 52 248 0.0 0.0 0.00 0.00 0.00 95 1010.5
20260506142713 52 203 2.0 2.0 0.00 0.00 0.00 95 1010.8
20260506141213 51 180 4.0 5.0 0.00 0.00 0.00 94 1010.8
20260506135713 52 225 0.0 0.0 0.00 0.00 0.00 94 1010.5
20260506134213 52 225 0.0 1.0 0.00 0.00 0.00 94 1010.5
20260506132713 52 180 1.0 2.0 0.00 0.00 0.00 93 1010.2
20260506131213 52 158 1.0 2.0 0.00 0.00 0.00 93 1010.2
20260506125713 52 225 1.0 2.0 0.00 0.00 0.00 92 1010.2
20260506124213 53 203 0.0 0.0 0.00 0.00 0.00 92 1010.2
20260506122713 52 203 3.0 3.0 0.00 0.00 0.00 92 1009.8
20260506121213 52 180 2.0 2.0 0.00 0.00 0.00 92 1009.5
20260506115713 52 180 4.0 5.0 0.00 0.00 0.00 92 1009.5
20260506114213 52 248 1.0 2.0 0.00 0.00 0.00 92 1009.5
20260506112712 52 203 2.0 3.0 0.00 0.00 0.00 92 1009.5
20260506111212 52 180 3.0 4.0 0.00 0.00 0.00 92 1009.1
20260506105712 52 203 1.0 2.0 0.00 0.00 0.00 92 1009.1
20260506104212 52 225 3.0 5.0 0.00 0.00 0.00 92 1009.1
20260506102712 52 203 1.0 2.0 0.00 0.00 0.00 92 1009.1
20260506101212 52 180 5.0 7.0 0.00 0.00 0.00 92 1009.5
20260506095713 52 158 1.0 2.0 0.00 0.00 0.00 92 1009.1
20260506094212 52 225 1.0 2.0 0.00 0.00 0.00 92 1008.8
20260506092712 52 203 2.0 2.0 0.00 0.00 0.00 92 1008.5
20260506091212 52 180 0.0 1.0 0.00 0.00 0.00 91 1008.8
20260506085712 53 203 3.0 4.0 0.00 0.00 0.00 90 1008.5
20260506084212 53 203 1.0 2.0 0.00 0.00 0.00 90 1008.5
20260506082712 54 225 2.0 3.0 0.00 0.00 0.00 90 1008.5
20260506081212 54 203 2.0 2.0 0.00 0.00 0.00 90 1008.1
20260506072712 54 225 1.0 2.0 0.00 0.00 0.00 89 1007.8
20260506071212 55 180 1.0 2.0 0.00 0.00 0.00 88 1007.8
20260506061212 57 203 0.0 0.0 0.00 0.00 0.00 85 1007.4
20260506051212 59 203 1.0 1.0 0.00 0.00 0.00 82 1006.8